Location: Willingham
(52.3167°N, 0.0667°E)
Time: 19:35:38
(UTC+00:00)

COSMOS 2406 - Pass Details

Date: 19 May 2025
Orbit: 845 x 859 km, 71.0° (Epoch: 20 June)

Event Time Altitude Azimuth Distance (km) Brightness Sun altitude
Exits shadow 23:41:06 15° 226° (SW) 2,166 5.0 -17.6°
Maximum altitude 23:45:54 62° 306° (NW) 955 3.6 -17.7°
Drops below altitude 10° 23:51:35 10° 27° (NNE) 2,494 6.6 -17.7°
Sets 23:54:05 0° 31° (NNE) 3,436 7.4 -17.7°
